Location: Ocean City
(38.3360°N, 75.0850°W)
Time: 01:28:58
(UTC-04:00)

BEESAT 2 - Pass Details

Date: 21 May 2019
Orbit: 502 x 528 km, 64.9° (Epoch: 18 June)

Event Time Altitude Azimuth Distance (km) Brightness Sun altitude
Rises 20:43:06 0° 262° (W) 2,621 ? -6.5°
Reaches altitude 10° 20:46:44 10° 298° (WNW) 1,747 ? -7.1°
Maximum altitude 20:48:00 11° 317° (NW) 1,670 ? -7.3°
Drops below altitude 10° 20:49:16 10° 336° (NNW) 1,755 ? -7.5°
Sets 20:52:58 0° 11° (NNE) 2,656 ? -8.1°
